This demonstration page uses our WeatherBlox Daily Observations layout. Learn more.

Hourly Observations for March 2, 2019

Temp ( °F °C ) Dew Point ( °F °C ) Humidity (%) Winds ( mph kmh ) Pressure ( in mb ) Visibility ( mi km ) Precip ( " mm )
12:15 am 00:15 Cloudy 19 -7.2 16 -8.8 88 88 N 10 17 30.41 1030 10 16.0934 0 0
12:35 am 00:35 Cloudy 19 -7.2 16 -8.7 89 89 NNE 10 17 30.4 1029 10 16.0934 0 0
12:55 am 00:55 Cloudy 19 -7.1 16 -8.7 89 89 N 8 13 30.4 1029 10 16.0934 0 0
1:15 am 01:15 Cloudy 19 -7 17 -8.6 89 89 NNW 6 9 30.44 1031 10 16.0934 0 0
1:35 am 01:35 Cloudy 19 -7 17 -8.5 89 89 N 6 9 30.43 1030 10 16.0934 0 0
1:55 am 01:55 Cloudy 19 -7 17 -8.5 89 89 N 5 7 30.45 1031 10 16.0934 0 0
2:15 am 02:15 Cloudy 19 -7 17 -8.5 89 89 N 8 13 30.44 1031 10 16.0934 0 0
2:35 am 02:35 Cloudy 19 -7 17 -8.5 89 89 N 8 13 30.44 1031 10 16.0934 0 0
2:55 am 02:55 Cloudy 19 -7.1 17 -8.5 90 90 N 9 15 30.44 1031 10 16.0934 0 0
3:15 am 03:15 Cloudy 19 -7.2 17 -8.3 92 92 NNE 9 15 30.42 1030 10 16.0934 0 0
3:35 am 03:35 Cloudy 19 -7.2 17 -8.5 91 91 NNE 9 15 30.41 1030 10 16.0934 0 0
3:55 am 03:55 Cloudy 19 -7.3 17 -8.5 91 91 NNE 8 13 30.41 1030 10 16.0934 0 0
4:15 am 04:15 Cloudy 19 -7.5 17 -8.5 93 93 NNE 8 13 30.4 1029 10 16.0934 0 0
4:35 am 04:35 Cloudy 19 -7.5 17 -8.5 93 93 NNE 8 13 30.4 1029 10 16.0934 0 0
4:55 am 04:55 Cloudy 19 -7.5 17 -8.5 93 93 NNE 8 13 30.4 1029 10 16.0934 0 0
5:15 am 05:15 Cloudy 19 -7.5 17 -8.6 92 92 NNE 7 11 30.41 1030 10 16.0934 0 0
5:35 am 05:35 Cloudy 18 -7.6 16 -8.7 92 92 NNE 9 15 30.42 1030 10 16.0934 0 0
5:55 am 05:55 Cloudy 18 -7.6 16 -8.7 92 92 NNE 9 15 30.43 1031 10 16.0934 0 0
6:15 am 06:15 Cloudy 18 -7.8 16 -9.1 91 91 NNE 12 19 30.43 1031 10 16.0934 0 0
6:35 am 06:35 Cloudy 18 -7.8 15 -9.2 90 90 N 8 13 30.46 1032 10 16.0934 0 0
6:55 am 06:55 Cloudy with Light Snow 17 -8.1 16 -9.1 93 93 NNE 9 15 30.48 1032 3 4.82802 0 0
7:15 am 07:15 Cloudy with Snow 17 -8.4 16 -9.1 95 95 NNE 10 17 30.49 1032 1 1.60934 0 0
7:35 am 07:35 Cloudy with Snow 16 -8.8 15 -9.5 95 95 NNE 12 19 30.48 1032 0.5 0.80467 0 0
7:55 am 07:55 Cloudy with Light Snow 16 -9 15 -9.6 95 95 NE 12 19 30.49 1032 0.75 1.207005 0 0
8:15 am 08:15 Cloudy with Light Snow 16 -9 15 -9.7 95 95 NE 10 17 30.49 1032 0.75 1.207005 0 0
8:35 am 08:35 Cloudy with Light Snow 16 -9 15 -9.7 95 95 NE 10 17 30.5 1033 1 1.60934 0 0
8:55 am 08:55 Cloudy with Light Snow 16 -9 15 -9.7 95 95 NE 17 28 30.51 1033 1 1.60934 0 0
9:15 am 09:15 Cloudy with Snow 15 -9.2 14 -10 94 94 NNE 16 26 30.52 1033 0.5 0.80467 0 0
9:35 am 09:35 Cloudy with Light Snow 15 -9.2 14 -10.2 93 93 NE 18 30 30.5 1033 0.75 1.207005 0 0
9:55 am 09:55 Cloudy with Light Snow 15 -9.3 13 -10.3 93 93 NE 16 26 30.5 1033 1.25 2.011675 0 0
10:15 am 10:15 Windy with Snow Likely 15 -9.3 13 -10.5 91 91 NE 20 31 30.5 1033 1.5 2.41401 0 0
10:35 am 10:35 Windy with Snow Likely 15 -9.3 13 -10.7 90 90 NE 22 35 30.52 1033 1 1.60934 0 0
10:55 am 10:55 Cloudy with Light Snow 16 -9.1 13 -10.6 89 89 NE 17 28 30.51 1033 2 3.21868 0 0
11:15 am 11:15 Windy with Snow Likely 16 -9.1 13 -10.8 88 88 NE 20 31 30.52 1033 3 4.82802 0 0
11:35 am 11:35 Cloudy with Light Snow 16 -9.1 12 -10.9 87 87 NE 16 26 30.53 1034 5 8.0467 0 0
11:55 am 11:55 Cloudy 15 -9.2 12 -11.1 86 86 NE 16 26 30.54 1034 10 16.0934 0 0
12:15 pm 12:15 Cloudy 15 -9.4 11 -11.5 85 85 NE 14 22 30.54 1034 10 16.0934 0 0
12:35 pm 12:35 Cloudy 15 -9.3 12 -11.3 86 86 NE 10 17 30.55 1035 10 16.0934 0 0
12:55 pm 12:55 Cloudy with Light Snow 15 -9.2 12 -11.3 85 85 NE 12 19 30.54 1034 7 11.26538 0 0
1:15 pm 13:15 Cloudy with Light Snow 15 -9.3 12 -11.3 86 86 NE 10 17 30.53 1034 7 11.26538 0 0
1:35 pm 13:35 Cloudy with Light Snow 15 -9.3 12 -11.3 86 86 NE 14 22 30.52 1033 3 4.82802 0 0
1:55 pm 13:55 Cloudy 15 -9.3 12 -11.3 86 86 NE 13 20 30.51 1033 7 11.26538 0 0
2:15 pm 14:15 Cloudy 16 -9.1 12 -11.3 84 84 NE 12 19 30.51 1033 10 16.0934 0 0
2:35 pm 14:35 Cloudy with Light Snow 15 -9.4 11 -11.6 84 84 NE 14 22 30.5 1033 10 16.0934 0 0
2:55 pm 14:55 Cloudy 15 -9.5 11 -11.7 84 84 NE 16 26 30.5 1033 7 11.26538 0 0
3:15 pm 15:15 Cloudy 15 -9.7 10 -12 84 84 NE 18 30 30.5 1033 7 11.26538 0 0
3:35 pm 15:35 Cloudy with Light Snow 14 -9.8 10 -12 84 84 NE 17 28 30.52 1034 7 11.26538 0 0
3:55 pm 15:55 Cloudy with Light Snow 14 -10 10 -12.1 85 85 NE 16 26 30.54 1034 7 11.26538 0 0
4:15 pm 16:15 Cloudy with Light Snow 14 -10 10 -12.2 84 84 NE 15 24 30.54 1034 7 11.26538 0 0
4:35 pm 16:35 Cloudy with Light Snow 14 -10.2 10 -12.3 85 85 NE 15 24 30.54 1034 5 8.0467 0 0
4:55 pm 16:55 Cloudy with Light Snow 13 -10.5 10 -12.5 85 85 NE 18 30 30.54 1034 5 8.0467 0 0
5:15 pm 17:15 Cloudy with Light Snow 13 -10.5 10 -12.5 85 85 NE 15 24 30.55 1035 7 11.26538 0 0
5:35 pm 17:35 Cloudy with Light Snow 13 -10.6 10 -12.5 86 86 NE 15 24 30.54 1034 5 8.0467 0 0
5:55 pm 17:55 Cloudy with Light Snow 13 -10.7 10 -12.4 87 87 NNE 16 26 30.54 1034 3 4.82802 0 0
6:15 pm 18:15 Cloudy with Light Snow 12 -11.1 9 -13 86 86 NNE 17 28 30.55 1034 5 8.0467 0 0
6:35 pm 18:35 Cloudy with Light Snow 12 -11.2 9 -13 87 87 NNE 17 28 30.56 1035 5 8.0467 0 0
6:55 pm 18:55 Windy with Snow Likely 11 -11.5 8 -13.1 88 88 NNE 20 31 30.56 1035 7 11.26538 0 0
7:15 pm 19:15 Windy with Snow Likely 11 -11.6 8 -13.4 87 87 NNE 23 37 30.57 1035 7 11.26538 0 0
7:35 pm 19:35 Windy with Snow Likely 10 -12 7 -14 85 85 NNE 24 39 30.58 1035 5 8.0467 0 0
7:55 pm 19:55 Cloudy 10 -12.1 6 -14.3 84 84 NNE 21 33 30.59 1036 7 11.26538 0 0
8:15 pm 20:15 Cloudy 10 -12.2 7 -14 87 87 NNE 22 35 30.58 1036 7 11.26538 0 0
8:35 pm 20:35 Cloudy 9 -12.6 6 -14.6 85 85 NNE 22 35 30.59 1036 7 11.26538 0 0
8:55 pm 20:55 Cloudy 9 -12.6 6 -14.7 84 84 NNE 18 30 30.6 1036 10 16.0934 0 0
9:15 pm 21:15 Cloudy 9 -12.6 6 -14.5 86 86 NNE 18 30 30.6 1036 10 16.0934 0 0
9:35 pm 21:35 Cloudy with Mist and Fog 8 -13.1 5 -15.2 84 84 NNE 22 35 30.6 1036 5 8.0467 0 0
9:55 pm 21:55 Cloudy with Light Snow 8 -13.3 5 -15.2 86 86 NNE 16 26 30.6 1036 3 4.82802 0 0
10:15 pm 22:15 Windy with Snow Likely 8 -13.5 5 -15.1 88 88 NNE 22 35 30.6 1036 1.5 2.41401 0 0
10:35 pm 22:35 Windy with Snow Likely 8 -13.6 4 -15.3 87 87 NNE 22 35 30.61 1037 1.75 2.816345 0 0
10:55 pm 22:55 Windy with Snow Likely 7 -14 4 -15.5 89 89 NNE 23 37 30.61 1037 1.5 2.41401 0 0
11:15 pm 23:15 Windy with Snow Likely 7 -14 4 -15.5 89 89 NNE 21 33 30.61 1037 2 3.21868 0 0
11:35 pm 23:35 Windy with Snow Likely 7 -14.1 3 -16 86 86 NNE 22 35 30.62 1037 2.5 4.02335 0 0
11:55 pm 23:55 Cloudy with Light Snow 6 -14.4 3 -16.1 87 87 NNE 17 28 30.61 1037 3 4.82802 0 0

Powered by AerisWeather